Location: Arthez
(43.0833°N, 0.2500°W)
Time: 01:17:20
(UTC+00:00)

NOSS 3-1 (A) - Pass Details

Date: 29 May 2022
Orbit: 711 x 1501 km, 63.4° (Epoch: 21 May)

Event Time Altitude Azimuth Distance (km) Brightness Sun altitude
Rises 22:28:35 0° 325° (NW) 3,865 8.0 -22.0°
Reaches altitude 10° 22:31:11 10° 331° (NNW) 3,018 7.2 -22.1°
Maximum altitude 22:38:18 48° 45° (NE) 1,628 4.7 -22.6°
Enters shadow 22:44:14 20° 111° (ESE) 2,795 5.5 -23.0°
